Year,Month,Day,Hour,Minute,Value (Times are PST for temperature in C)
2018,07,05,00,00,21.10
2018,07,05,00,01,21.10
2018,07,05,00,02,21.10
2018,07,05,00,03,21.10
2018,07,05,00,04,21.20
2018,07,05,00,05,21.20
2018,07,05,00,06,21.20
2018,07,05,00,07,21.20
2018,07,05,00,08,21.20
2018,07,05,00,09,21.20
2018,07,05,00,10,21.30
2018,07,05,00,11,21.30
2018,07,05,00,12,21.30
2018,07,05,00,13,21.30
2018,07,05,00,14,21.30
2018,07,05,00,15,21.30
2018,07,05,00,16,21.30
2018,07,05,00,17,21.20
2018,07,05,00,18,21.20
2018,07,05,00,19,21.20
2018,07,05,00,20,21.20
2018,07,05,00,21,21.20
2018,07,05,00,22,21.20
2018,07,05,00,23,21.20
2018,07,05,00,24,21.20
2018,07,05,00,25,21.20
2018,07,05,00,26,21.10
2018,07,05,00,27,21.10
2018,07,05,00,28,21.00
2018,07,05,00,29,20.90
2018,07,05,00,30,20.90
2018,07,05,00,31,20.80
2018,07,05,00,32,20.80
2018,07,05,00,33,20.70
2018,07,05,00,34,20.60
2018,07,05,00,35,20.60
2018,07,05,00,36,20.60
2018,07,05,00,37,20.50
2018,07,05,00,38,20.50
2018,07,05,00,39,20.40
2018,07,05,00,40,20.40
2018,07,05,00,41,20.30
2018,07,05,00,42,20.30
2018,07,05,00,43,20.20
2018,07,05,00,44,20.10
2018,07,05,00,45,20.00
2018,07,05,00,46,20.00
2018,07,05,00,47,20.00
2018,07,05,00,48,19.90
2018,07,05,00,49,19.90
2018,07,05,00,50,19.90
2018,07,05,00,51,19.80
2018,07,05,00,52,19.80
2018,07,05,00,53,19.80
2018,07,05,00,54,19.70
2018,07,05,00,55,19.70
2018,07,05,00,56,19.70
2018,07,05,00,57,19.60
2018,07,05,00,58,19.60
2018,07,05,00,59,19.50
2018,07,05,01,00,19.50
2018,07,05,01,01,19.40
2018,07,05,01,02,19.40
2018,07,05,01,03,19.40
2018,07,05,01,04,19.30
2018,07,05,01,05,19.30
2018,07,05,01,06,19.30
2018,07,05,01,07,19.30
2018,07,05,01,08,19.20
2018,07,05,01,09,19.20
2018,07,05,01,10,19.20
2018,07,05,01,11,19.10
2018,07,05,01,12,19.10
2018,07,05,01,13,19.10
2018,07,05,01,14,19.00
2018,07,05,01,15,19.00
2018,07,05,01,16,19.00
2018,07,05,01,17,18.90
2018,07,05,01,18,18.90
2018,07,05,01,19,18.90
2018,07,05,01,20,18.90
2018,07,05,01,21,18.90
2018,07,05,01,22,18.80
2018,07,05,01,23,18.80
2018,07,05,01,24,18.80
2018,07,05,01,25,18.80
2018,07,05,01,26,18.80
2018,07,05,01,27,18.80
2018,07,05,01,28,18.80
2018,07,05,01,29,18.80
2018,07,05,01,30,18.80
2018,07,05,01,31,18.70
2018,07,05,01,32,18.80
2018,07,05,01,33,18.70
2018,07,05,01,34,18.70
2018,07,05,01,35,18.70
2018,07,05,01,36,18.70
2018,07,05,01,37,18.70
2018,07,05,01,38,18.70
2018,07,05,01,39,18.70
2018,07,05,01,40,18.70
2018,07,05,01,41,18.70
2018,07,05,01,42,18.70
2018,07,05,01,43,18.70
2018,07,05,01,44,18.70
2018,07,05,01,45,18.70
2018,07,05,01,46,18.70
2018,07,05,01,47,18.60
2018,07,05,01,48,18.60
2018,07,05,01,49,18.60
2018,07,05,01,50,18.60
2018,07,05,01,51,18.60
2018,07,05,01,52,18.60
2018,07,05,01,53,18.60
2018,07,05,01,54,18.60
2018,07,05,01,55,18.60
2018,07,05,01,56,18.60
2018,07,05,01,57,18.50
2018,07,05,01,58,18.50
2018,07,05,01,59,18.50
2018,07,05,02,00,18.50
2018,07,05,02,01,18.50
2018,07,05,02,02,18.40
2018,07,05,02,03,18.50
2018,07,05,02,04,18.40
2018,07,05,02,05,18.40
2018,07,05,02,06,18.40
2018,07,05,02,07,18.40
2018,07,05,02,08,18.40
2018,07,05,02,09,18.40
2018,07,05,02,10,18.40
2018,07,05,02,11,18.40
2018,07,05,02,12,18.30
2018,07,05,02,13,18.30
2018,07,05,02,14,18.30
2018,07,05,02,15,18.30
2018,07,05,02,16,18.30
2018,07,05,02,17,18.30
2018,07,05,02,18,18.30
2018,07,05,02,19,18.30
2018,07,05,02,20,18.30
2018,07,05,02,21,18.30
2018,07,05,02,22,18.30
2018,07,05,02,23,18.30
2018,07,05,02,24,18.30
2018,07,05,02,25,18.30
2018,07,05,02,26,18.30
2018,07,05,02,27,18.30
2018,07,05,02,28,18.30
2018,07,05,02,29,18.30
2018,07,05,02,30,18.30
2018,07,05,02,31,18.30
2018,07,05,02,32,18.30
2018,07,05,02,33,18.30
2018,07,05,02,34,18.20
2018,07,05,02,35,18.20
2018,07,05,02,36,18.20
2018,07,05,02,37,18.20
2018,07,05,02,38,18.20
2018,07,05,02,39,18.20
2018,07,05,02,40,18.20
2018,07,05,02,41,18.20
2018,07,05,02,42,18.20
2018,07,05,02,43,18.20
2018,07,05,02,44,18.20
2018,07,05,02,45,18.20
2018,07,05,02,46,18.20
2018,07,05,02,47,18.20
2018,07,05,02,48,18.10
2018,07,05,02,49,18.10
2018,07,05,02,50,18.10
2018,07,05,02,51,18.10
2018,07,05,02,52,18.10
2018,07,05,02,53,18.10
2018,07,05,02,54,18.10
2018,07,05,02,55,18.10
2018,07,05,02,56,18.10
2018,07,05,02,57,18.10
2018,07,05,02,58,18.10
2018,07,05,02,59,18.10
2018,07,05,03,00,18.10
2018,07,05,03,01,18.10
2018,07,05,03,02,18.10
2018,07,05,03,03,18.10
2018,07,05,03,04,18.10
2018,07,05,03,05,18.20
2018,07,05,03,06,18.20
2018,07,05,03,07,18.10
2018,07,05,03,08,18.20
2018,07,05,03,09,18.20
2018,07,05,03,10,18.20
2018,07,05,03,11,18.20
2018,07,05,03,12,18.20
2018,07,05,03,13,18.20
2018,07,05,03,14,18.20
2018,07,05,03,15,18.20
2018,07,05,03,16,18.20
2018,07,05,03,17,18.20
2018,07,05,03,18,18.20
2018,07,05,03,19,18.20
2018,07,05,03,20,18.20
2018,07,05,03,21,18.20
2018,07,05,03,22,18.20
2018,07,05,03,23,18.20
2018,07,05,03,24,18.20
2018,07,05,03,25,18.20
2018,07,05,03,26,18.20
2018,07,05,03,27,18.20
2018,07,05,03,28,18.20
2018,07,05,03,29,18.20
2018,07,05,03,30,18.20
2018,07,05,03,31,18.20
2018,07,05,03,32,18.20
2018,07,05,03,33,18.20
2018,07,05,03,34,18.20
2018,07,05,03,35,18.20
2018,07,05,03,36,18.20
2018,07,05,03,37,18.20
2018,07,05,03,38,18.20
2018,07,05,03,39,18.20
2018,07,05,03,40,18.20
2018,07,05,03,41,18.20
2018,07,05,03,42,18.20
2018,07,05,03,43,18.20
2018,07,05,03,44,18.20
2018,07,05,03,45,18.30
2018,07,05,03,46,18.30
2018,07,05,03,47,18.30
2018,07,05,03,48,18.30
2018,07,05,03,49,18.30
2018,07,05,03,50,18.30
2018,07,05,03,51,18.30
2018,07,05,03,52,18.30
2018,07,05,03,53,18.30
2018,07,05,03,54,18.20
2018,07,05,03,55,18.30
2018,07,05,03,56,18.20
2018,07,05,03,57,18.20
2018,07,05,03,58,18.20
2018,07,05,03,59,18.20
2018,07,05,04,00,18.20
2018,07,05,04,01,18.20
2018,07,05,04,02,18.20
2018,07,05,04,03,18.20
2018,07,05,04,04,18.20
2018,07,05,04,05,18.20
2018,07,05,04,06,18.20
2018,07,05,04,07,18.20
2018,07,05,04,08,18.20
2018,07,05,04,09,18.20
2018,07,05,04,10,18.10
2018,07,05,04,11,18.10
2018,07,05,04,12,18.10
2018,07,05,04,13,18.10
2018,07,05,04,14,18.10
2018,07,05,04,15,18.10
2018,07,05,04,16,18.10
2018,07,05,04,17,18.10
2018,07,05,04,18,18.10
2018,07,05,04,19,18.10
2018,07,05,04,20,18.10
2018,07,05,04,21,18.10
2018,07,05,04,22,18.00
2018,07,05,04,23,18.00
2018,07,05,04,24,18.00
2018,07,05,04,25,18.10
2018,07,05,04,26,18.00
2018,07,05,04,27,18.00
2018,07,05,04,28,18.00
2018,07,05,04,29,18.00
2018,07,05,04,30,18.00
2018,07,05,04,31,18.00
2018,07,05,04,32,18.00
2018,07,05,04,33,18.00
2018,07,05,04,34,18.00
2018,07,05,04,35,18.00
2018,07,05,04,36,18.00
2018,07,05,04,37,18.00
2018,07,05,04,38,18.00
2018,07,05,04,39,18.00
2018,07,05,04,40,17.90
2018,07,05,04,41,17.90
2018,07,05,04,42,17.90
2018,07,05,04,43,17.90
2018,07,05,04,44,17.90
2018,07,05,04,45,17.80
2018,07,05,04,46,17.80
2018,07,05,04,47,17.80
2018,07,05,04,48,17.80
2018,07,05,04,49,17.80
2018,07,05,04,50,17.80
2018,07,05,04,51,17.80
2018,07,05,04,52,17.70
2018,07,05,04,53,17.70
2018,07,05,04,54,17.70
2018,07,05,04,55,17.70
2018,07,05,04,56,17.70
2018,07,05,04,57,17.70
2018,07,05,04,58,17.70
2018,07,05,04,59,17.60
2018,07,05,05,00,17.60
2018,07,05,05,01,17.60
2018,07,05,05,02,17.60
2018,07,05,05,03,17.60
2018,07,05,05,04,17.60
2018,07,05,05,05,17.60
2018,07,05,05,06,17.60
2018,07,05,05,07,17.50
2018,07,05,05,08,17.50
2018,07,05,05,09,17.50
2018,07,05,05,10,17.50
2018,07,05,05,11,17.50
2018,07,05,05,12,17.50
2018,07,05,05,13,17.50
2018,07,05,05,14,17.50
2018,07,05,05,15,17.50
2018,07,05,05,16,17.40
2018,07,05,05,17,17.40
2018,07,05,05,18,17.40
2018,07,05,05,19,17.40
2018,07,05,05,20,17.40
2018,07,05,05,21,17.40
2018,07,05,05,22,17.40
2018,07,05,05,23,17.30
2018,07,05,05,24,17.30
2018,07,05,05,25,17.30
2018,07,05,05,26,17.30
2018,07,05,05,27,17.30
2018,07,05,05,28,17.30
2018,07,05,05,29,17.30
2018,07,05,05,30,17.20
2018,07,05,05,31,17.20
2018,07,05,05,32,17.20
2018,07,05,05,33,17.20
2018,07,05,05,34,17.20
2018,07,05,05,35,17.20
2018,07,05,05,36,17.20
2018,07,05,05,37,17.20
2018,07,05,05,38,17.20
2018,07,05,05,39,17.20
2018,07,05,05,40,17.10
2018,07,05,05,41,17.10
2018,07,05,05,42,17.10
2018,07,05,05,43,17.10
2018,07,05,05,44,17.10
2018,07,05,05,45,17.10
2018,07,05,05,46,17.10
2018,07,05,05,47,17.10
2018,07,05,05,48,17.10
2018,07,05,05,49,17.10
2018,07,05,05,50,17.00
2018,07,05,05,51,17.10
2018,07,05,05,52,17.00
2018,07,05,05,53,17.00
2018,07,05,05,54,17.00
2018,07,05,05,55,17.00
2018,07,05,05,56,17.00
2018,07,05,05,57,17.00
2018,07,05,05,58,17.00
2018,07,05,05,59,17.00
2018,07,05,06,00,17.00
2018,07,05,06,01,17.00
2018,07,05,06,02,17.00
2018,07,05,06,03,17.00
2018,07,05,06,04,17.00
2018,07,05,06,05,17.00
2018,07,05,06,06,16.90
2018,07,05,06,07,17.00
2018,07,05,06,08,16.90
2018,07,05,06,09,17.00
2018,07,05,06,10,16.90
2018,07,05,06,11,17.00
2018,07,05,06,12,17.00
2018,07,05,06,13,16.90
2018,07,05,06,14,17.00
2018,07,05,06,15,17.00
2018,07,05,06,16,17.00
2018,07,05,06,17,17.00
2018,07,05,06,18,16.90
2018,07,05,06,19,17.00
2018,07,05,06,20,17.00
2018,07,05,06,21,17.00
2018,07,05,06,22,17.00
2018,07,05,06,23,17.00
2018,07,05,06,24,16.90
2018,07,05,06,25,17.00
2018,07,05,06,26,17.00
2018,07,05,06,27,17.00
2018,07,05,06,28,17.00
2018,07,05,06,29,17.00
2018,07,05,06,30,17.00
2018,07,05,06,31,17.00
2018,07,05,06,32,17.00
2018,07,05,06,33,17.00
2018,07,05,06,34,17.00
2018,07,05,06,35,17.00
2018,07,05,06,36,17.00
2018,07,05,06,37,17.00
2018,07,05,06,38,17.10
2018,07,05,06,39,17.10
2018,07,05,06,40,17.10
2018,07,05,06,41,17.10
2018,07,05,06,42,17.10
2018,07,05,06,43,17.10
2018,07,05,06,44,17.10
2018,07,05,06,45,17.10
2018,07,05,06,46,17.10
2018,07,05,06,47,17.10
2018,07,05,06,48,17.10
2018,07,05,06,49,17.10
2018,07,05,06,50,17.10
2018,07,05,06,51,17.10
2018,07,05,06,52,17.20
2018,07,05,06,53,17.20
2018,07,05,06,54,17.20
2018,07,05,06,55,17.20
2018,07,05,06,56,17.30
2018,07,05,06,57,17.30
2018,07,05,06,58,17.30
2018,07,05,06,59,17.30
2018,07,05,07,00,17.30
2018,07,05,07,01,17.30
2018,07,05,07,02,17.40
2018,07,05,07,03,17.40
2018,07,05,07,04,17.40
2018,07,05,07,05,17.40
2018,07,05,07,06,17.40
2018,07,05,07,07,17.40
2018,07,05,07,08,17.40
2018,07,05,07,09,17.40
2018,07,05,07,10,17.40
2018,07,05,07,11,17.40
2018,07,05,07,12,17.40
2018,07,05,07,13,17.40
2018,07,05,07,14,17.40
2018,07,05,07,15,17.50
2018,07,05,07,16,17.50
2018,07,05,07,17,17.50
2018,07,05,07,18,17.50
2018,07,05,07,19,17.50
2018,07,05,07,20,17.60
2018,07,05,07,21,17.60
2018,07,05,07,22,17.60
2018,07,05,07,23,17.60
2018,07,05,07,24,17.60
2018,07,05,07,25,17.60
2018,07,05,07,26,17.60
2018,07,05,07,27,17.60
2018,07,05,07,28,17.60
2018,07,05,07,29,17.60
2018,07,05,07,30,17.60
2018,07,05,07,31,17.70
2018,07,05,07,32,17.70
2018,07,05,07,33,17.70
2018,07,05,07,34,17.70
2018,07,05,07,35,17.70
2018,07,05,07,36,17.80
2018,07,05,07,37,17.80
2018,07,05,07,38,17.80
2018,07,05,07,39,17.80
2018,07,05,07,40,17.80
2018,07,05,07,41,17.90
2018,07,05,07,42,17.90
2018,07,05,07,43,17.90
2018,07,05,07,44,17.90
2018,07,05,07,45,17.90
2018,07,05,07,46,17.90
2018,07,05,07,47,17.90
2018,07,05,07,48,17.90
2018,07,05,07,49,18.00
2018,07,05,07,50,18.00
2018,07,05,07,51,18.00
2018,07,05,07,52,18.00
2018,07,05,07,53,18.10
2018,07,05,07,54,18.10
2018,07,05,07,55,18.10
2018,07,05,07,56,18.10
2018,07,05,07,57,18.10
2018,07,05,07,58,18.10
2018,07,05,07,59,18.20
2018,07,05,08,00,18.20
2018,07,05,08,01,18.20
2018,07,05,08,02,18.20
2018,07,05,08,03,18.20
2018,07,05,08,04,18.20
2018,07,05,08,05,18.30
2018,07,05,08,06,18.30
2018,07,05,08,07,18.30
2018,07,05,08,08,18.30
2018,07,05,08,09,18.30
2018,07,05,08,10,18.30
2018,07,05,08,11,18.30
2018,07,05,08,12,18.30
2018,07,05,08,13,18.40
2018,07,05,08,14,18.40
2018,07,05,08,15,18.40
2018,07,05,08,16,18.40
2018,07,05,08,17,18.40
2018,07,05,08,18,18.50
2018,07,05,08,19,18.50
2018,07,05,08,20,18.60
2018,07,05,08,21,18.60
2018,07,05,08,22,18.60
2018,07,05,08,23,18.60
2018,07,05,08,24,18.70
2018,07,05,08,25,18.70
2018,07,05,08,26,18.70
2018,07,05,08,27,18.70
2018,07,05,08,28,18.70
2018,07,05,08,29,18.70
2018,07,05,08,30,18.70
2018,07,05,08,31,18.70
2018,07,05,08,32,18.70
2018,07,05,08,33,18.70
2018,07,05,08,34,18.60
2018,07,05,08,35,18.60
2018,07,05,08,36,18.60
2018,07,05,08,37,18.60
2018,07,05,08,38,18.60
2018,07,05,08,39,18.60
2018,07,05,08,40,18.70
2018,07,05,08,41,18.70
2018,07,05,08,42,18.70
2018,07,05,08,43,18.70
2018,07,05,08,44,18.70
2018,07,05,08,45,18.70
2018,07,05,08,46,18.70
2018,07,05,08,47,18.70
2018,07,05,08,48,18.80
2018,07,05,08,49,18.80
2018,07,05,08,50,18.80
2018,07,05,08,51,18.80
2018,07,05,08,52,18.80
2018,07,05,08,53,18.80
2018,07,05,08,54,18.80
2018,07,05,08,55,18.90
2018,07,05,08,56,18.90
2018,07,05,08,57,18.90
2018,07,05,08,58,18.90
2018,07,05,08,59,18.90
2018,07,05,09,00,18.90
2018,07,05,09,01,18.90
2018,07,05,09,02,18.90
2018,07,05,09,03,18.90
2018,07,05,09,04,18.90
2018,07,05,09,05,18.90
2018,07,05,09,06,18.90
2018,07,05,09,07,18.90
2018,07,05,09,08,18.90
2018,07,05,09,09,18.90
2018,07,05,09,10,18.90
2018,07,05,09,11,18.90
2018,07,05,09,12,18.90
2018,07,05,09,13,18.90
2018,07,05,09,14,18.90
2018,07,05,09,15,18.90
2018,07,05,09,16,18.90
2018,07,05,09,17,18.90
2018,07,05,09,18,18.90
2018,07,05,09,19,18.90
2018,07,05,09,20,18.90
2018,07,05,09,21,19.00
2018,07,05,09,22,19.00
2018,07,05,09,23,19.10
2018,07,05,09,24,19.10
2018,07,05,09,25,19.10
2018,07,05,09,26,19.10
2018,07,05,09,27,19.20
2018,07,05,09,28,19.20
2018,07,05,09,29,19.20
2018,07,05,09,30,19.20
2018,07,05,09,31,19.20
2018,07,05,09,32,19.20
2018,07,05,09,33,19.20
2018,07,05,09,34,19.20
2018,07,05,09,35,19.20
2018,07,05,09,36,19.10
2018,07,05,09,37,19.10
2018,07,05,09,38,19.00
2018,07,05,09,39,19.00
2018,07,05,09,40,18.90
2018,07,05,09,41,18.90
2018,07,05,09,42,18.90
2018,07,05,09,43,18.90
2018,07,05,09,44,18.90
2018,07,05,09,45,18.90
2018,07,05,09,46,18.90
2018,07,05,09,47,18.90
2018,07,05,09,48,18.90
2018,07,05,09,49,18.90
2018,07,05,09,50,18.90
2018,07,05,09,51,18.80
2018,07,05,09,52,18.80
2018,07,05,09,53,18.80
2018,07,05,09,54,18.80
2018,07,05,09,55,18.90
2018,07,05,09,56,18.80
2018,07,05,09,57,18.80
2018,07,05,09,58,18.90
2018,07,05,09,59,18.90
2018,07,05,10,00,18.80
2018,07,05,10,01,18.80
2018,07,05,10,02,18.90
2018,07,05,10,03,18.90
2018,07,05,10,04,18.90
2018,07,05,10,05,18.90
2018,07,05,10,06,18.90
2018,07,05,10,07,18.90
2018,07,05,10,08,18.90
2018,07,05,10,09,19.00
2018,07,05,10,10,19.00
2018,07,05,10,11,19.10
2018,07,05,10,12,19.10
2018,07,05,10,13,19.10
2018,07,05,10,14,19.20
2018,07,05,10,15,19.20
2018,07,05,10,16,19.30
2018,07,05,10,17,19.30
2018,07,05,10,18,19.30
2018,07,05,10,19,19.30
2018,07,05,10,20,19.40
2018,07,05,10,21,19.40
2018,07,05,10,22,19.40
2018,07,05,10,23,19.40
2018,07,05,10,24,19.40
2018,07,05,10,25,19.40
2018,07,05,10,26,19.40
2018,07,05,10,27,19.40
2018,07,05,10,28,19.40
2018,07,05,10,29,19.40
2018,07,05,10,30,19.40
2018,07,05,10,31,19.40
2018,07,05,10,32,19.40
2018,07,05,10,33,19.40
2018,07,05,10,34,19.50
2018,07,05,10,35,19.50
2018,07,05,10,36,19.50
2018,07,05,10,37,19.50
2018,07,05,10,38,19.60
2018,07,05,10,39,19.60
2018,07,05,10,40,19.60
2018,07,05,10,41,19.60
2018,07,05,10,42,19.60
2018,07,05,10,43,19.60
2018,07,05,10,44,19.70
2018,07,05,10,45,19.70
2018,07,05,10,46,19.70
2018,07,05,10,47,19.70
2018,07,05,10,48,19.70
2018,07,05,10,49,19.70
2018,07,05,10,50,19.70
2018,07,05,10,51,19.80
2018,07,05,10,52,19.80
2018,07,05,10,53,19.80
2018,07,05,10,54,19.80
2018,07,05,10,55,19.80
2018,07,05,10,56,19.80
2018,07,05,10,57,19.80
2018,07,05,10,58,19.80
2018,07,05,10,59,19.80
2018,07,05,11,00,19.80
2018,07,05,11,01,19.80
2018,07,05,11,02,19.80
2018,07,05,11,03,19.80
2018,07,05,11,04,19.80
2018,07,05,11,05,19.80
2018,07,05,11,06,19.90
2018,07,05,11,07,19.90
2018,07,05,11,08,19.90
2018,07,05,11,09,19.90
2018,07,05,11,10,19.90
2018,07,05,11,11,19.90
2018,07,05,11,12,19.90
2018,07,05,11,13,19.90
2018,07,05,11,14,19.90
2018,07,05,11,15,19.90
2018,07,05,11,16,19.90
2018,07,05,11,17,20.00
2018,07,05,11,18,20.00
2018,07,05,11,19,20.10
2018,07,05,11,20,20.10
2018,07,05,11,21,20.20
2018,07,05,11,22,20.20
2018,07,05,11,23,20.20
2018,07,05,11,24,20.20
2018,07,05,11,25,20.30
2018,07,05,11,26,20.30
2018,07,05,11,27,20.30
2018,07,05,11,28,20.30
2018,07,05,11,29,20.20
2018,07,05,11,30,20.20
2018,07,05,11,31,20.20
2018,07,05,11,32,20.20
2018,07,05,11,33,20.30
2018,07,05,11,34,20.30
2018,07,05,11,35,20.30
2018,07,05,11,36,20.30
2018,07,05,11,37,20.30
2018,07,05,11,38,20.30
2018,07,05,11,39,20.30
2018,07,05,11,40,20.40
2018,07,05,11,41,20.40
2018,07,05,11,42,20.50
2018,07,05,11,43,20.50
2018,07,05,11,44,20.60
2018,07,05,11,45,20.60
2018,07,05,11,46,20.60
2018,07,05,11,47,20.60
2018,07,05,11,48,20.60
2018,07,05,11,49,20.60
2018,07,05,11,50,20.60
2018,07,05,11,51,20.60
2018,07,05,11,52,20.60
2018,07,05,11,53,20.50
2018,07,05,11,54,20.50
2018,07,05,11,55,20.40
2018,07,05,11,56,20.30
2018,07,05,11,57,20.30
2018,07,05,11,58,20.30
2018,07,05,11,59,20.20
2018,07,05,12,00,20.20
2018,07,05,12,01,20.20
2018,07,05,12,02,20.20
2018,07,05,12,03,20.20
2018,07,05,12,04,20.20
2018,07,05,12,05,20.20
2018,07,05,12,06,20.10
2018,07,05,12,07,20.10
2018,07,05,12,08,20.10
2018,07,05,12,09,20.10
2018,07,05,12,10,20.10
2018,07,05,12,11,20.10
2018,07,05,12,12,20.10
2018,07,05,12,13,20.00
2018,07,05,12,14,20.00
2018,07,05,12,15,20.10
2018,07,05,12,16,20.10
2018,07,05,12,17,20.10
2018,07,05,12,18,20.10
2018,07,05,12,19,20.20
2018,07,05,12,20,20.20
2018,07,05,12,21,20.20
2018,07,05,12,22,20.20
2018,07,05,12,23,20.20
2018,07,05,12,24,20.20
2018,07,05,12,25,20.30
2018,07,05,12,26,20.30
2018,07,05,12,27,20.30
2018,07,05,12,28,20.20
2018,07,05,12,29,20.20
2018,07,05,12,30,20.20
2018,07,05,12,31,20.20
2018,07,05,12,32,20.20
2018,07,05,12,33,20.20
2018,07,05,12,34,20.20
2018,07,05,12,35,20.20
2018,07,05,12,36,20.10
2018,07,05,12,37,20.00
2018,07,05,12,38,19.90
2018,07,05,12,39,19.80
2018,07,05,12,40,19.80
2018,07,05,12,41,19.70
2018,07,05,12,42,19.70
2018,07,05,12,43,19.60
2018,07,05,12,44,19.60
2018,07,05,12,45,19.60
2018,07,05,12,46,19.60
2018,07,05,12,47,19.50
2018,07,05,12,48,19.50
2018,07,05,12,49,19.50
2018,07,05,12,50,19.50
2018,07,05,12,51,19.50
2018,07,05,12,52,19.50
2018,07,05,12,53,19.40
2018,07,05,12,54,19.40
2018,07,05,12,55,19.40
2018,07,05,12,56,19.30
2018,07,05,12,57,19.30
2018,07,05,12,58,19.20
2018,07,05,12,59,19.20
2018,07,05,13,00,19.10
2018,07,05,13,01,19.10
2018,07,05,13,02,19.10
2018,07,05,13,03,19.10
2018,07,05,13,04,19.10
2018,07,05,13,05,19.00
2018,07,05,13,06,19.00
2018,07,05,13,07,19.00
2018,07,05,13,08,19.00
2018,07,05,13,09,19.00
2018,07,05,13,10,19.00
2018,07,05,13,11,19.00
2018,07,05,13,12,19.00
2018,07,05,13,13,18.90
2018,07,05,13,14,18.90
2018,07,05,13,15,18.90
2018,07,05,13,16,18.90
2018,07,05,13,17,18.90
2018,07,05,13,18,18.80
2018,07,05,13,19,18.80
2018,07,05,13,20,18.80
2018,07,05,13,21,18.80
2018,07,05,13,22,18.70
2018,07,05,13,23,18.70
2018,07,05,13,24,18.70
2018,07,05,13,25,18.70
2018,07,05,13,26,18.70
2018,07,05,13,27,18.70
2018,07,05,13,28,18.60
2018,07,05,13,29,18.60
2018,07,05,13,30,18.50
2018,07,05,13,31,18.50
2018,07,05,13,32,18.40
2018,07,05,13,33,18.40
2018,07,05,13,34,18.40
2018,07,05,13,35,18.40
2018,07,05,13,36,18.40
2018,07,05,13,37,18.40
2018,07,05,13,38,18.50
2018,07,05,13,39,18.50
2018,07,05,13,40,18.50
2018,07,05,13,41,18.50
2018,07,05,13,42,18.50
2018,07,05,13,43,18.50
2018,07,05,13,44,18.50
2018,07,05,13,45,18.40
2018,07,05,13,46,18.40
2018,07,05,13,47,18.40
2018,07,05,13,48,18.40
2018,07,05,13,49,18.40
2018,07,05,13,50,18.50
2018,07,05,13,51,18.50
2018,07,05,13,52,18.50
2018,07,05,13,53,18.60
2018,07,05,13,54,18.70
2018,07,05,13,55,18.70
2018,07,05,13,56,18.70
2018,07,05,13,57,18.70
2018,07,05,13,58,18.70
2018,07,05,13,59,18.80
2018,07,05,14,00,18.80
2018,07,05,14,01,18.80
2018,07,05,14,02,18.80
2018,07,05,14,03,18.80
2018,07,05,14,04,18.80
2018,07,05,14,05,18.80
2018,07,05,14,06,18.80
2018,07,05,14,07,18.80
2018,07,05,14,08,18.80
2018,07,05,14,09,18.90
2018,07,05,14,10,18.90
2018,07,05,14,11,18.90
2018,07,05,14,12,19.00
2018,07,05,14,13,19.00
2018,07,05,14,14,19.00
2018,07,05,14,15,19.00
2018,07,05,14,16,19.10
2018,07,05,14,17,19.10
2018,07,05,14,18,19.10
2018,07,05,14,19,19.10
2018,07,05,14,20,19.10
2018,07,05,14,21,19.20
2018,07,05,14,22,19.30
2018,07,05,14,23,19.30
2018,07,05,14,24,19.30
2018,07,05,14,25,19.30
2018,07,05,14,26,19.30
2018,07,05,14,27,19.30
2018,07,05,14,28,19.40
2018,07,05,14,29,19.40
2018,07,05,14,30,19.40
2018,07,05,14,31,19.50
2018,07,05,14,32,19.50
2018,07,05,14,33,19.60
2018,07,05,14,34,19.60
2018,07,05,14,35,19.60
2018,07,05,14,36,19.60
2018,07,05,14,37,19.70
2018,07,05,14,38,19.70
2018,07,05,14,39,19.70
2018,07,05,14,40,19.70
2018,07,05,14,41,19.70
2018,07,05,14,42,19.70
2018,07,05,14,43,19.70
2018,07,05,14,44,19.70
2018,07,05,14,45,19.70
2018,07,05,14,46,19.80
2018,07,05,14,47,19.80
2018,07,05,14,48,19.90
2018,07,05,14,49,19.90
2018,07,05,14,50,19.90
2018,07,05,14,51,20.00
2018,07,05,14,52,20.00
2018,07,05,14,53,20.00
2018,07,05,14,54,20.10
2018,07,05,14,55,20.10
2018,07,05,14,56,20.10
2018,07,05,14,57,20.10
2018,07,05,14,58,20.20
2018,07,05,14,59,20.20
2018,07,05,15,00,20.20
2018,07,05,15,01,20.20
2018,07,05,15,02,20.10
2018,07,05,15,03,20.10
2018,07,05,15,04,20.10
2018,07,05,15,05,20.10
2018,07,05,15,06,20.10
2018,07,05,15,07,20.10
2018,07,05,15,08,20.10
2018,07,05,15,09,20.10
2018,07,05,15,10,20.10
2018,07,05,15,11,20.00
2018,07,05,15,12,20.00
2018,07,05,15,13,20.00
2018,07,05,15,14,20.00
2018,07,05,15,15,20.00
2018,07,05,15,16,20.00
2018,07,05,15,17,20.00
2018,07,05,15,18,20.00
2018,07,05,15,19,20.10
2018,07,05,15,20,20.10
2018,07,05,15,21,20.10
2018,07,05,15,22,20.10
2018,07,05,15,23,20.20
2018,07,05,15,24,20.20
2018,07,05,15,25,20.20
2018,07,05,15,26,20.20
2018,07,05,15,27,20.20
2018,07,05,15,28,20.20
2018,07,05,15,29,20.20
2018,07,05,15,30,20.20
2018,07,05,15,31,20.20
2018,07,05,15,32,20.20
2018,07,05,15,33,20.20
2018,07,05,15,34,20.10
2018,07,05,15,35,20.10
2018,07,05,15,36,20.10
2018,07,05,15,37,20.10
2018,07,05,15,38,20.10
2018,07,05,15,39,20.10
2018,07,05,15,40,20.10
2018,07,05,15,41,20.10
2018,07,05,15,42,20.10
2018,07,05,15,43,20.10
2018,07,05,15,44,20.10
2018,07,05,15,45,20.10
2018,07,05,15,46,20.10
2018,07,05,15,47,20.20
2018,07,05,15,48,20.20
2018,07,05,15,49,20.20
2018,07,05,15,50,20.10
2018,07,05,15,51,20.10
2018,07,05,15,52,20.00
2018,07,05,15,53,20.00
2018,07,05,15,54,20.00
2018,07,05,15,55,19.90
2018,07,05,15,56,19.90
2018,07,05,15,57,20.00
2018,07,05,15,58,20.00
2018,07,05,15,59,20.00
2018,07,05,16,00,20.00
2018,07,05,16,01,20.00
2018,07,05,16,02,20.00
2018,07,05,16,03,20.00
2018,07,05,16,04,20.00
2018,07,05,16,05,20.00
2018,07,05,16,06,20.00
2018,07,05,16,07,20.00
2018,07,05,16,08,20.00
2018,07,05,16,09,20.00
2018,07,05,16,10,20.00
2018,07,05,16,11,20.00
2018,07,05,16,12,20.00
2018,07,05,16,13,20.10
2018,07,05,16,14,20.10
2018,07,05,16,15,20.20
2018,07,05,16,16,20.20
2018,07,05,16,17,20.20
2018,07,05,16,18,20.20
2018,07,05,16,19,20.20
2018,07,05,16,20,20.20
2018,07,05,16,21,20.20
2018,07,05,16,22,20.30
2018,07,05,16,23,20.30
2018,07,05,16,24,20.30
2018,07,05,16,25,20.30
2018,07,05,16,26,20.30
2018,07,05,16,27,20.30
2018,07,05,16,28,20.30
2018,07,05,16,29,20.30
2018,07,05,16,30,20.30
2018,07,05,16,31,20.30
2018,07,05,16,32,20.30
2018,07,05,16,33,20.30
2018,07,05,16,34,20.30
2018,07,05,16,35,20.30
2018,07,05,16,36,20.30
2018,07,05,16,37,20.30
2018,07,05,16,38,20.20
2018,07,05,16,39,20.20
2018,07,05,16,40,20.30
2018,07,05,16,41,20.30
2018,07,05,16,42,20.30
2018,07,05,16,43,20.30
2018,07,05,16,44,20.40
2018,07,05,16,45,20.50
2018,07,05,16,46,20.50
2018,07,05,16,47,20.60
2018,07,05,16,48,20.60
2018,07,05,16,49,20.70
2018,07,05,16,50,20.70
2018,07,05,16,51,20.70
2018,07,05,16,52,20.70
2018,07,05,16,53,20.70
2018,07,05,16,54,20.70
2018,07,05,16,55,20.70
2018,07,05,16,56,20.70
2018,07,05,16,57,20.70
2018,07,05,16,58,20.70
2018,07,05,16,59,20.70
2018,07,05,17,00,20.70
2018,07,05,17,01,20.70
2018,07,05,17,02,20.70
2018,07,05,17,03,20.70
2018,07,05,17,04,20.70
2018,07,05,17,05,20.70
2018,07,05,17,06,20.70
2018,07,05,17,07,20.70
2018,07,05,17,08,20.70
2018,07,05,17,09,20.80
2018,07,05,17,10,20.80
2018,07,05,17,11,20.80
2018,07,05,17,12,20.80
2018,07,05,17,13,20.90
2018,07,05,17,14,20.90
2018,07,05,17,15,20.90
2018,07,05,17,16,20.90
2018,07,05,17,17,20.90
2018,07,05,17,18,20.90
2018,07,05,17,19,20.90